EIN4HW LIMC-EIDW

Flight info

Callsign EIN4HW
Flight time N/A
Altitude 34000
Route AOSTA DCT ORSUD DCT MOLUS DCT IBODI DCT GOTED DCT TRO DCT CLM DCT KOPOR DCT VESAN DCT RATUK DCT SOVAT L613 SANDY DCT OKSAW DCT TEWXI DCT LANON L18 LIPGO
Aircraft A320/M-SDE3FGHIRWY/LB1

Departure

Time 2026-05-01 14:46
Airport Milan Malpensa International Airport (LIMC)

Arrival

Time N/A
Airport Dublin Airport (EIDW)
Time Latitude Longitude Altitude Speed Heading
2026-05-01 13:48 45.63015 8.71472 753 ft 0 kts 349°
2026-05-01 14:33 45.63014 8.71472 752 ft 1 kts 349°
2026-05-01 14:33 45.62991 8.71478 750 ft 4 kts 353°
2026-05-01 14:33 45.62964 8.71481 752 ft 4 kts
2026-05-01 14:34 45.62939 8.71474 752 ft 4 kts 31°
2026-05-01 14:34 45.62926 8.71456 749 ft 1 kts 81°
2026-05-01 14:34 45.62926 8.71450 749 ft 0 kts 81°
2026-05-01 14:37 45.62926 8.71452 752 ft 3 kts 81°
2026-05-01 14:37 45.62936 8.71545 752 ft 13 kts 81°
2026-05-01 14:37 45.62957 8.71704 752 ft 19 kts 79°
2026-05-01 14:38 45.62986 8.71908 749 ft 23 kts 80°
2026-05-01 14:38 45.62902 8.72075 752 ft 26 kts 167°
2026-05-01 14:38 45.62716 8.72130 750 ft 29 kts 170°
2026-05-01 14:38 45.62509 8.72182 748 ft 32 kts 170°
2026-05-01 14:39 45.62288 8.72241 750 ft 32 kts 169°
2026-05-01 14:39 45.62068 8.72301 750 ft 32 kts 169°
2026-05-01 14:39 45.61851 8.72361 752 ft 32 kts 169°
2026-05-01 14:39 45.61634 8.72420 751 ft 32 kts 169°
2026-05-01 14:40 45.61417 8.72479 748 ft 32 kts 169°
2026-05-01 14:40 45.61207 8.72541 752 ft 30 kts 167°
2026-05-01 14:40 45.61090 8.72646 751 ft 20 kts 96°
2026-05-01 14:40 45.61104 8.72862 748 ft 23 kts 79°
2026-05-01 14:41 45.61149 8.73067 751 ft 21 kts 46°
2026-05-01 14:41 45.61271 8.73181 752 ft 21 kts 32°
2026-05-01 14:41 45.61406 8.73262 753 ft 22 kts 356°
2026-05-01 14:41 45.61549 8.73223 752 ft 13 kts 345°
2026-05-01 14:42 45.61613 8.73269 753 ft 10 kts 62°
2026-05-01 14:42 45.61629 8.73339 753 ft 0 kts 80°
2026-05-01 14:43 45.61629 8.73340 753 ft 1 kts 80°
2026-05-01 14:43 45.61625 8.73439 753 ft 20 kts 108°
2026-05-01 14:43 45.61589 8.73642 748 ft 23 kts 80°
2026-05-01 14:43 45.61689 8.73712 744 ft 0 kts 349°
2026-05-01 14:45 45.61700 8.73709 744 ft 13 kts 348°
2026-05-01 14:45 45.63002 8.73346 784 ft 160 kts 346°
2026-05-01 14:45 45.64125 8.73007 1210 ft 180 kts 348°
2026-05-01 14:46 45.65445 8.72613 1858 ft 200 kts 348°
2026-05-01 14:46 45.68430 8.71698 2606 ft 245 kts 347°
2026-05-01 14:46 45.70184 8.71150 3162 ft 261 kts 347°
2026-05-01 14:47 45.71947 8.70593 3971 ft 265 kts 347°
2026-05-01 14:47 45.73761 8.70002 4859 ft 268 kts 347°
2026-05-01 14:47 45.75520 8.69102 5676 ft 272 kts 327°
2026-05-01 14:48 45.77423 8.64573 7239 ft 279 kts 276°
2026-05-01 14:48 45.77554 8.61788 8044 ft 281 kts 274°
2026-05-01 14:48 45.77642 8.58596 8943 ft 285 kts 272°
2026-05-01 14:49 45.77756 8.52862 10462 ft 292 kts 272°
2026-05-01 14:49 45.77878 8.46624 10981 ft 333 kts 272°
2026-05-01 14:50 45.77967 8.42109 11750 ft 343 kts 272°
2026-05-01 14:50 45.78123 8.34041 13277 ft 354 kts 272°
2026-05-01 14:51 45.78194 8.30499 13928 ft 358 kts 272°
2026-05-01 14:51 45.78333 8.23315 15167 ft 363 kts 271°
2026-05-01 14:52 45.78465 8.16001 16245 ft 372 kts 272°
2026-05-01 14:52 45.78530 8.12268 16776 ft 376 kts 272°
2026-05-01 14:52 45.78664 8.04712 17827 ft 382 kts 272°
2026-05-01 14:53 45.78729 8.00891 18405 ft 385 kts 272°
2026-05-01 14:53 45.78794 7.97045 18925 ft 388 kts 272°
2026-05-01 14:53 45.78859 7.93150 19430 ft 391 kts 272°
2026-05-01 14:53 45.78923 7.89240 19949 ft 393 kts 272°
2026-05-01 14:54 45.78985 7.85322 20486 ft 395 kts 271°
2026-05-01 14:54 45.79043 7.81375 21050 ft 396 kts 271°
2026-05-01 14:54 45.79101 7.77411 21558 ft 399 kts 271°
2026-05-01 14:54 45.79158 7.73425 22058 ft 402 kts 271°
2026-05-01 14:55 45.79214 7.69409 22558 ft 404 kts 271°
2026-05-01 14:55 45.79269 7.65366 23056 ft 407 kts 271°
2026-05-01 14:55 45.79321 7.61308 23546 ft 409 kts 271°
2026-05-01 14:55 45.79372 7.57269 23986 ft 412 kts 271°
2026-05-01 14:56 45.79424 7.53111 24369 ft 414 kts 271°
2026-05-01 14:56 45.79475 7.49020 24701 ft 416 kts 271°
2026-05-01 14:56 45.79530 7.44875 25083 ft 417 kts 273°
2026-05-01 14:56 45.79907 7.40746 25456 ft 418 kts 284°
2026-05-01 14:57 45.80850 7.36816 25828 ft 419 kts 296°
2026-05-01 14:57 45.84274 7.30104 26536 ft 420 kts 319°
2026-05-01 14:57 45.86570 7.27554 26859 ft 422 kts 325°
2026-05-01 14:58 45.88947 7.25137 27185 ft 423 kts 325°
2026-05-01 14:58 45.91354 7.22685 27513 ft 425 kts 324°
2026-05-01 14:58 45.93782 7.20213 27854 ft 427 kts 324°
2026-05-01 14:58 45.96204 7.17744 28183 ft 428 kts 324°
2026-05-01 14:59 45.98556 7.15340 28505 ft 429 kts 324°
2026-05-01 14:59 46.00798 7.13043 28762 ft 432 kts 324°
2026-05-01 14:59 46.03265 7.10514 28952 ft 436 kts 324°
2026-05-01 14:59 46.05721 7.07998 29209 ft 439 kts 324°
2026-05-01 15:00 46.10714 7.02868 29772 ft 442 kts 324°
2026-05-01 15:00 46.13225 7.00282 30036 ft 444 kts 323°
2026-05-01 15:00 46.15745 6.97687 30315 ft 445 kts 324°
2026-05-01 15:01 46.18272 6.95081 30534 ft 447 kts 323°
2026-05-01 15:01 46.20806 6.92461 30749 ft 448 kts 323°
2026-05-01 15:01 46.23341 6.89835 30969 ft 449 kts 323°
2026-05-01 15:01 46.25878 6.87206 31200 ft 450 kts 324°
2026-05-01 15:02 46.28422 6.84577 31508 ft 448 kts 324°
2026-05-01 15:02 46.29286 6.83688 31622 ft 447 kts 323°
2026-05-01 15:02 46.31834 6.81094 31926 ft 447 kts 323°
2026-05-01 15:03 46.34363 6.78473 32203 ft 446 kts 323°
2026-05-01 15:03 46.36877 6.75838 32502 ft 445 kts 323°
2026-05-01 15:03 46.39387 6.73194 32748 ft 446 kts 323°
2026-05-01 15:03 46.41894 6.70555 33001 ft 446 kts 323°
2026-05-01 15:04 46.44365 6.67817 33274 ft 445 kts 317°
2026-05-01 15:04 46.46566 6.64681 33551 ft 443 kts 313°
2026-05-01 15:04 46.48688 6.61474 33837 ft 442 kts 313°
2026-05-01 15:04 46.50828 6.58241 34134 ft 441 kts 313°
2026-05-01 15:05 46.52949 6.55039 34248 ft 438 kts 313°
2026-05-01 15:05 46.57103 6.48755 34270 ft 431 kts 312°
2026-05-01 15:06 46.61250 6.42438 34272 ft 427 kts 312°
2026-05-01 15:06 46.65320 6.36234 34260 ft 426 kts 312°
2026-05-01 15:07 46.69403 6.29986 34267 ft 425 kts 312°
2026-05-01 15:07 46.73481 6.23747 34258 ft 425 kts 312°
2026-05-01 15:08 46.77564 6.17491 34271 ft 425 kts 312°
2026-05-01 15:08 46.81638 6.11225 34257 ft 426 kts 311°
2026-05-01 15:09 46.85718 6.04938 34255 ft 426 kts 311°
2026-05-01 15:09 46.89792 5.98640 34250 ft 426 kts 311°
2026-05-01 15:10 46.93883 5.92357 34248 ft 427 kts 315°
2026-05-01 15:10 46.98764 5.87381 34243 ft 430 kts 330°
2026-05-01 15:10 47.01419 5.85350 34239 ft 431 kts 330°
2026-05-01 15:11 47.09375 5.79245 34221 ft 433 kts 330°
2026-05-01 15:12 47.14717 5.75127 34223 ft 435 kts 330°
2026-05-01 15:12 47.22742 5.68909 34219 ft 435 kts 330°
2026-05-01 15:14 47.36221 5.58443 34214 ft 439 kts 330°
2026-05-01 15:14 47.44337 5.52100 34215 ft 440 kts 330°
2026-05-01 15:15 47.54337 5.41912 34217 ft 437 kts 307°
2026-05-01 15:16 47.61569 5.27493 34215 ft 437 kts 303°
2026-05-01 15:18 47.70558 5.09322 34206 ft 439 kts 303°
2026-05-01 15:19 47.77798 4.94612 34210 ft 442 kts 303°
2026-05-01 15:19 47.83228 4.83501 34203 ft 442 kts 303°
2026-05-01 15:20 47.88656 4.72366 34206 ft 443 kts 303°
2026-05-01 15:21 47.92266 4.64931 34227 ft 443 kts 303°
2026-05-01 15:21 47.95882 4.57467 34194 ft 445 kts 303°
2026-05-01 15:22 48.01331 4.46176 34194 ft 447 kts 303°
2026-05-01 15:22 48.04948 4.38662 34191 ft 448 kts 303°
2026-05-01 15:23 48.08586 4.31077 34191 ft 449 kts 303°
2026-05-01 15:23 48.12221 4.23482 34209 ft 449 kts 303°
2026-05-01 15:24 48.15609 4.16380 34194 ft 450 kts 303°
2026-05-01 15:24 48.19249 4.08735 34176 ft 451 kts 303°
2026-05-01 15:25 48.22891 4.01050 34172 ft 452 kts 302°
2026-05-01 15:25 48.26819 3.93650 34177 ft 455 kts 311°
2026-05-01 15:26 48.31197 3.86766 34180 ft 456 kts 311°
2026-05-01 15:26 48.35573 3.79876 34183 ft 456 kts 311°
2026-05-01 15:27 48.39868 3.73087 34194 ft 456 kts 311°
2026-05-01 15:28 48.46482 3.62565 34187 ft 458 kts 311°
2026-05-01 15:28 48.50867 3.55590 34193 ft 459 kts 311°
2026-05-01 15:29 48.57455 3.45054 34216 ft 460 kts 311°
2026-05-01 15:30 48.65519 3.32100 34187 ft 462 kts 311°
2026-05-01 15:31 48.79454 3.09561 34191 ft 463 kts 311°
2026-05-01 15:32 48.89343 2.97147 34201 ft 465 kts 329°
2026-05-01 15:34 49.05242 2.83220 34181 ft 466 kts 329°